Weather in Virovitica

Croatia     45°49′56″N   17°23′12″E
temp.,
°C
wind,
m/s
gust,
m/s
humid.,
%
clouds,
%
prec.,
mm/h
press.,
hPa
HPBL,
m
3 august, tue
tue323:00+17wnw116115 0.0 101611
02:00+15wnw117330 0.1 101611
05:00+15ssw11765 0.0 101611
08:00+20ene01555 0.0 1016221
11:00+27w1239100 0.0 10161363
14:00+31w35241 0.0 10132885
17:00+31w47244 0.0 10112644
20:00+24w124196 0.0 101111
4 august, wed
wed423:00+21sw3442100 0.0 101355
02:00+20sw3543100 0.0 101371
05:00+18sw2247100 0.0 101323
08:00+22nnw2242100 0.0 1014238
11:00+27w243399 0.0 1013969
14:00+31wnw362546 0.0 10122326
17:00+32wnw3624100 0.0 10102280
20:00+26n0137100 0.0 100911
5 august, thu
thu523:00+22se1147100 0.0 100911
02:00+24ese3541100 0.0 1007122
05:00+21sw1147100 0.0 100612
08:00+20wsw4769100 0.3 1007222
11:00+21w3764100 0.6 1007470
14:00+29wsw393482 0.6 10062678
17:00+18nnw7129011 0.6 1007405
20:00+15wnw22919 1.3 100931
6 august, fri
fri623:00+14sw339595 0.0 101051
02:00+13wsw2291100 0.0 101023
05:00+13w1191100 0.0 101011
08:00+17w007579 0.0 1011204
11:00+25nne11425 0.0 10101258
14:00+29nne11294 0.0 10092121
17:00+29nw22272 0.0 10082577
20:00+23nw22432 0.0 100912
7 august, sat
sat723:00+19s21535 0.0 101011
02:00+17se22582 0.0 101111
05:00+16se22600 0.0 101117
08:00+23se12410 0.0 1012205
11:00+31sse24240 0.0 10111651
14:00+34s45175 0.0 10092695
17:00+35ssw46175 0.0 10072778
20:00+26s22360 0.0 100715